Weather History for New Orleans NAS, LA

Change the Weather History Date:

Tuesday, January 8, 2013

  Actual Average Record
Temperature  
Mean Temperature 58 °F -  
Max Temperature 64 °F 60 °F 80 °F (2012)
Min Temperature 52 °F 44 °F 21 °F (2014)
Degree Days  
Heating Degree Days 7    
Growing Degree Days 8 (Base 50)    
Moisture  
Dew Point 54 °F    
Average Humidity 83    
Maximum Humidity 94    
Minimum Humidity 71    
Precipitation  
Precipitation 0.00 in - - ()
Sea Level Pressure  
Sea Level Pressure 30.13 in    
Wind  
Wind Speed 9 mph (ENE)    
Max Wind Speed 13 mph    
Max Gust Speed 23 mph    
Visibility 5 miles    
Events Rain    
Averages and records for this station are not official NWS values.
T = Trace of Precipitation, MM = Missing Value Source: NWS Daily Summary

Daily Weather History Graph

Daily Weather History Graph

Search for Another Location

Airport:

Trip Planner

Search our weather history database for the weather conditions in past years. The results will help you decide how hot, cold, wet, or windy it might be!

Date:

Astronomy

Jan. 08, 2013 Rise Set
Actual Time 6:56 AM CST 5:17 PM CST
Civil Twilight 6:30 AM CST 5:43 PM CST
Nautical Twilight 6:01 AM CST 6:13 PM CST
Astronomical Twilight 5:32 AM CST 6:42 PM CST
Moon 3:31 AM CST (1/8) 2:19 PM CST (1/8)
Length of Visible Light 11h 12m
Length of Day
10h 20m
Waning Crescent, 13% of the Moon is Illuminated
Jan 8
Waning Crescent
Jan 11
New
Jan 18
First Quarter
Jan 26
Full
Feb 3
Last Quarter

Hourly Weather History & Observations

Time (CST) Temp. Dew Point Humidity Pressure Visibility Wind Dir Wind Speed Gust Speed Precip Events Conditions
1:55 AM 53.1 °F 44.1 °F 71% 30.15 in 10.0 mi ENE 8.1 mph - N/A   Mostly Cloudy
2:55 AM 52.0 °F 44.1 °F 74% 30.14 in 10.0 mi ENE 9.2 mph - N/A   Scattered Clouds
3:55 AM 53.1 °F 45.0 °F 74% 30.13 in 10.0 mi ENE 11.5 mph - N/A   Overcast
4:55 AM 54.0 °F 46.9 °F 77% 30.13 in 10.0 mi ENE 10.4 mph - N/A   Overcast
5:51 AM 53.6 °F 46.4 °F 77% 30.14 in 10.0 mi ENE 9.2 mph - N/A   Scattered Clouds
5:55 AM 53.1 °F 46.9 °F 80% 30.14 in 10.0 mi ENE 9.2 mph - N/A   Partly Cloudy
6:12 AM 53.6 °F 46.4 °F 77% 30.14 in 10.0 mi ENE 9.2 mph - N/A   Mostly Cloudy
6:55 AM 53.1 °F 46.9 °F 80% 30.16 in 10.0 mi ENE 6.9 mph - N/A   Overcast
7:55 AM 55.9 °F 48.9 °F 77% 30.18 in 9.0 mi East 6.9 mph - N/A   Mostly Cloudy
8:55 AM 59.0 °F 51.1 °F 75% 30.19 in 10.0 mi ENE 8.1 mph - N/A   Mostly Cloudy
9:55 AM 60.1 °F 52.0 °F 75% 30.21 in 10.0 mi ENE 9.2 mph - N/A   Overcast
10:27 AM 60.8 °F 53.6 °F 77% 30.21 in 8.0 mi NE 6.9 mph - N/A   Overcast
10:55 AM 61.0 °F 54.0 °F 78% 30.19 in 8.0 mi ENE 8.1 mph - N/A   Overcast
11:02 AM 60.8 °F 53.6 °F 77% 30.20 in 7.0 mi NE 10.4 mph - N/A   Overcast
11:55 AM 61.0 °F 55.0 °F 81% 30.17 in 7.0 mi ENE 9.2 mph - N/A   Overcast
12:55 PM 60.1 °F 55.0 °F 83% 30.13 in 3.0 mi ENE 10.4 mph - N/A   Overcast
1:55 PM 61.0 °F 55.9 °F 83% 30.11 in 3.0 mi ENE 11.5 mph - N/A   Overcast
2:21 PM 60.8 °F 55.4 °F 82% 30.10 in 3.0 mi ENE 10.4 mph - N/A Rain Light Rain
2:55 PM 61.0 °F 57.0 °F 87% 30.09 in 3.0 mi ENE 11.5 mph - N/A Rain Light Rain
3:14 PM 60.8 °F 57.2 °F 88% 30.09 in 2.5 mi ENE 8.1 mph - N/A Rain Light Rain
3:22 PM 60.8 °F 57.2 °F 88% 30.09 in 3.0 mi East 9.2 mph - N/A   Overcast
3:55 PM 62.1 °F 57.9 °F 86% 30.10 in 3.0 mi ENE 9.2 mph - N/A   Overcast
4:14 PM 60.8 °F 57.2 °F 88% 30.09 in 2.5 mi ENE 8.1 mph - N/A Rain Light Rain
4:55 PM 62.1 °F 57.9 °F 86% 30.09 in 2.5 mi ENE 10.4 mph - N/A Rain Light Rain
5:12 PM 62.6 °F 57.2 °F 82% 30.09 in 3.0 mi ENE 9.2 mph 23.0 mph N/A   Overcast
5:55 PM 60.1 °F 57.0 °F 90% 30.09 in 2.5 mi ENE 11.5 mph - N/A   Overcast
6:44 PM 59.0 °F 55.4 °F 88% 30.09 in 1.8 mi ENE 11.5 mph - N/A Rain Light Rain
6:55 PM 60.1 °F 57.0 °F 90% 30.09 in 1.0 mi ENE 11.5 mph - N/A Rain Light Rain
7:55 PM 60.1 °F 57.0 °F 90% 30.10 in 0.8 mi ENE 11.5 mph - N/A Rain Light Rain
8:55 PM 61.0 °F 57.9 °F 90% 30.11 in 0.8 mi East 9.2 mph - N/A Rain Light Rain
9:36 PM 62.6 °F 60.8 °F 94% 30.12 in 1.8 mi East 10.4 mph - N/A   Overcast
9:55 PM 63.0 °F 60.1 °F 90% 30.12 in 2.0 mi East 9.2 mph - N/A   Overcast
10:02 PM 62.6 °F 60.8 °F 94% 30.13 in 2.0 mi East 9.2 mph - N/A Rain Light Rain
10:55 PM 63.0 °F 60.1 °F 90% 30.14 in 3.0 mi East 9.2 mph - N/A   Overcast
11:08 PM 64.4 °F 60.8 °F 88% 30.13 in 6.0 mi East 11.5 mph - N/A   Overcast
11:55 PM 64.0 °F 60.1 °F 87% 30.12 in 5.0 mi East 12.7 mph - N/A   Overcast